Tracking 28790 objects as of 19-Apr-2024
HD Live streaming from Space Station
objects crossing your sky now

DELTA 1 DEB

Track DELTA 1 DEB now!
10-day predictions


NORAD ID: 9979
Int'l Code: 1973-086GJ
Perigee: 1,412.8 km
Apogee: 2,423.9 km
Inclination: 101.9 °
Period: 125.2 minutes
Semi major axis: 8289 km
RCS: 0.0244 m2 (small)
Launch date: November 6, 1973
Source: United States (US)
Launch site: AIR FORCE WESTERN TEST RANGE (AFWTR)

Note: This is SATELLITE DEBRIS
Your satellite tracking list
Your tracking list is empty




NASA's NSSDC Master Catalog

Two Line Element Set (TLE):
1  9979U 73086GJ  24101.62828492  .00000393  00000-0  61146-2 0  9992
2  9979 101.9246 147.3061 0609871 153.5858 357.8435 11.50337885315091
Source of the keplerian elements: AFSPC